Regional Weather Roundup
Issued by NWS

Home | Current Version | Previous Version | Graphics & Text | Print | Product List | Glossary On
Versions: 1 2 3 4 5 6 7 8 9 10 11 12 13 14 15 16 17 18 19 20 21 22 23 24 25 26 27 28 29 30 31 32 33 34 35 36 37 38 39 40 41 42 43 44 45 46 47 48 49 50
000
ASUS43 KLMK 240810
RWRKY
KENTUCKY REGIONAL WEATHER ROUNDUP
NATIONAL WEATHER SERVICE LOUISVILLE KY
400 AM EDT SUN MAY 24 2015

NOTE "FAIR" INDICATES FEW OR NO CLOUDS BELOW 12,000 FEET
WITH NO SIGNIFICANT WEATHER AND/OR OBSTRUCTIONS TO VISIBILITY.

KYZ001>023-026-027-061>063-070>075-240900-
WESTERN AND SOUTH CENTRAL KENTUCKY

CITY           SKY/WX    TMP DP  RH WIND       PRES   REMARKS
PADUCAH        PTCLDY    62  56  80 SE6       30.14S
HENDERSON      MOCLDY    64  48  55 SE5       30.17F
OWENSBORO      MOCLDY    64  54  70 SE6       30.20R
HOPKINSVILLE   CLEAR     65  57  76 SE6       30.19R
BOWLING GREEN  CLEAR     59  55  87 CALM      30.23R
GLASGOW        PTCLDY    65  51  59 SE3       30.25R
$$

KYZ024-025-028>034-038-045-046-053-240900-
NORTH CENTRAL KENTUCKY

CITY           SKY/WX    TMP DP  RH WIND       PRES   REMARKS
LOUISVILLE/SDF CLOUDY    64  52  64 SE3       30.23S
LOUISVILLE/LOU CLOUDY    65  51  60 CALM      30.24R
FORT KNOX      PTCLDY    59  52  77 E2        30.23R
$$

KYZ035>037-039>044-047>052-055>060-089>105-240900-
NORTHEAST KENTUCKY

CITY           SKY/WX    TMP DP  RH WIND       PRES   REMARKS
LEXINGTON      PTCLDY    63  50  62 SE8       30.27S
COVINGTON      CLEAR     63  47  55 SE10      30.26F
FRANKFORT      MOCLDY    62  49  62 E3        30.25S
$$

KYZ054-064>069-076>088-106>120-240900-
SOUTHEAST KENTUCKY

CITY           SKY/WX    TMP DP  RH WIND       PRES   REMARKS
JACKSON        PTCLDY    61  49  64 SE3       30.30S
LONDON         MOCLDY    57  51  80 CALM      30.29S
SOMERSET       PTCLDY    55  54  94 CALM      30.29S
MIDDLESBORO    PTCLDY    53  53  97 CALM      30.32S
MONTICELLO     MOSUNNY   55  53  93 CALM      30.30S
$$




USA.gov is the U.S. government's official web portal to all federal, state and local government web resources and services.